Terminal Aerodrome Forecast
Issued by NWS Mt. Holly, NJ

Home | Current Version | Previous Version | Text Only | Print | Product List | Glossary On
Versions: 1 2 3 4 5 6 7 8 9 10 11 12 13 14 15 16 17 18 19 20 21 22 23 24 25 26 27 28 29 30 31 32 33 34 35 36 37 38 39 40 41 42 43 44 45 46 47 48 49 50
819
FTAK31 PANC 241958 AAB
TAFABE
TAF AMD
PABE 241958Z 2420/2518 VRB05KT 4SM -SHRA FEW005 OVC015
      TEMPO 2420/2422 2SM -SHRA BR BKN005
     FM250300 VRB05KT 6SM -SHRA SCT010 BKN020
     FM251000 14005KT 2SM BR OVC010=

USA.gov is the U.S. government's official web portal to all federal, state and local government web resources and services.